South Bend, IN

4:22 AM EST on February 18, 2018 (GMT -0500)
South Bend Regional

Weather History for KSBN - July, 2012

Change the Weather History Date:

Friday, July 27, 2012

  Actual Average Record
Temperature  
Mean Temperature 75 °F 73 °F  
Max Temperature 83 °F 82 °F 100 °F (1916)
Min Temperature 66 °F 63 °F 46 °F (1937)
Degree Days  
Heating Degree Days 0 0  
Month to date heating degree days 0 0  
Since 1 June heating degree days 29 44  
Since 1 July heating degree days 0 0  
Cooling Degree Days 10 8  
Month to date cooling degree days 421 216  
Year to date cooling degree days 811 437  
Since 1 June cooling degree days 653 381  
Growing Degree Days 24 (Base 50)    
Moisture  
Dew Point 67 °F    
Average Humidity 76    
Maximum Humidity 93    
Minimum Humidity 58    
Precipitation  
Precipitation 0.03 in 0.13 in 2.51 in (2006)
Month to date precipitation 6.06 3.48  
Year to date precipitation 18.90 20.99  
Snow  
Snow 0.00 in - - ()
Month to date snowfall 0.0  
Snow Depth 0.00 in    
Sea Level Pressure  
Sea Level Pressure 29.84 in    
Wind  
Wind Speed 6 mph (WNW)    
Max Wind Speed 20 mph    
Max Gust Speed 26 mph    
Visibility 9 miles    
Events Rain , Thunderstorm    
T = Trace of Precipitation, MM = Missing Value Source: NWS Daily Summary

Daily Weather History Graph

Daily Weather History Graph

Search for Another Location

Airport or City:

Trip Planner

Search our weather history database for the weather conditions in past years. The results will help you decide how hot, cold, wet, or windy it might be!

Date:

Astronomy

Jul. 27, 2012 Rise Set
Actual Time 6:35 AM EDT 9:07 PM EDT
Civil Twilight 6:03 AM EDT 9:39 PM EDT
Nautical Twilight 5:23 AM EDT 10:19 PM EDT
Astronomical Twilight 4:38 AM EDT 11:03 PM EDT
Moon 4:04 PM EDT (7/27) 1:07 AM EDT (7/27)
Length of Visible Light 15h 36m
Length of Day
14h 32m
Waxing Gibbous, 65% of the Moon is Illuminated
Jul 27
Waxing Gibbous
Aug 1
Full
Aug 9
Last Quarter
Aug 17
New
Aug 24
First Quarter

Hourly Weather History & Observations

Time (EDT) Temp. Heat Index Dew Point Humidity Pressure Visibility Wind Dir Wind Speed Gust Speed Precip Events Conditions
12:54 AM 69.1 °F - 66.0 °F 90% 29.76 in 10.0 mi WSW 5.8 mph - N/A   Clear
1:54 AM 69.1 °F - 66.0 °F 90% 29.77 in 10.0 mi WSW 6.9 mph - N/A   Clear
2:54 AM 68.0 °F - 66.0 °F 93% 29.78 in 10.0 mi Calm Calm - N/A   Clear
3:54 AM 68.0 °F - 64.9 °F 90% 29.78 in 8.0 mi SW 4.6 mph - N/A   Clear
4:54 AM 66.9 °F - 64.9 °F 93% 29.79 in 6.0 mi SSW 4.6 mph - N/A   Clear
5:54 AM 66.9 °F - 64.9 °F 93% 29.81 in 6.0 mi Calm Calm - N/A   Clear
6:54 AM 66.9 °F - 64.9 °F 93% 29.81 in 4.0 mi SSW 3.5 mph - N/A   Partly Cloudy
7:54 AM 68.0 °F - 66.0 °F 93% 29.82 in 5.0 mi Calm Calm - N/A   Clear
8:54 AM 71.1 °F - 66.9 °F 87% 29.82 in 8.0 mi SSW 5.8 mph - N/A   Clear
9:54 AM 73.9 °F - 66.9 °F 79% 29.84 in 10.0 mi SW 6.9 mph - N/A   Clear
10:54 AM 73.9 °F - 66.9 °F 79% 29.83 in 10.0 mi Calm Calm - N/A   Mostly Cloudy
11:54 AM 73.9 °F - 69.1 °F 85% 29.84 in 10.0 mi Calm Calm - 0.00 in Rain Light Rain
12:54 PM 79.0 °F - 66.9 °F 66% 29.83 in 10.0 mi SW 8.1 mph - 0.00 in   Scattered Clouds
1:54 PM 77.0 °F - 70.0 °F 79% 29.84 in 10.0 mi NNW 6.9 mph - 0.03 in Rain Light Rain
2:08 PM 77.0 °F - 69.8 °F 78% 29.85 in 10.0 mi NW 4.6 mph - 0.00 in Thunderstorm Mostly Cloudy
2:23 PM 78.8 °F - 71.6 °F 78% 29.85 in 10.0 mi North 6.9 mph - 0.00 in   Scattered Clouds
2:54 PM 80.1 °F 82.9 °F 69.1 °F 69% 29.83 in 10.0 mi NNW 4.6 mph - 0.00 in   Mostly Cloudy
3:54 PM 80.1 °F 82.9 °F 69.1 °F 69% 29.83 in 10.0 mi NW 9.2 mph - N/A   Mostly Cloudy
4:54 PM 82.0 °F 84.1 °F 66.0 °F 58% 29.84 in 10.0 mi NW 15.0 mph - N/A   Partly Cloudy
5:54 PM 78.1 °F - 64.0 °F 62% 29.86 in 10.0 mi NNW 15.0 mph 26.5 mph N/A   Partly Cloudy
6:54 PM 79.0 °F - 64.9 °F 62% 29.87 in 10.0 mi NNW 12.7 mph - N/A   Clear
7:54 PM 75.9 °F - 64.9 °F 69% 29.88 in 10.0 mi North 10.4 mph - N/A   Clear
8:54 PM 73.0 °F - 64.9 °F 76% 29.90 in 10.0 mi North 10.4 mph - N/A   Partly Cloudy
9:54 PM 71.1 °F - 64.9 °F 81% 29.92 in 10.0 mi NNW 8.1 mph - N/A   Clear
10:54 PM 69.1 °F - 64.9 °F 87% 29.94 in 10.0 mi NW 4.6 mph - N/A   Clear
11:54 PM 68.0 °F - 64.9 °F 90% 29.95 in 10.0 mi NW 3.5 mph - N/A   Partly Cloudy